Location: Beuerbach
(48.1459°N, 10.9174°E)
Time: 19:52:28
(UTC+00:00)

ATLAS 2AS CENTAUR R/B - Pass Details

Date: 23 May 2024
Orbit: 1018 x 1193 km, 63.7° (Epoch: 24 June)

Event Time Altitude Azimuth Distance (km) Brightness Sun altitude
Rises 01:31:24 0° 318° (NW) 3,917 5.9 -14.6°
Reaches altitude 10° 01:34:11 10° 323° (NW) 2,931 5.2 -14.3°
Maximum altitude 01:41:00 58° 42° (NE) 1,219 3.4 -13.7°
Drops below altitude 10° 01:47:32 10° 121° (ESE) 2,821 5.0 -13.0°
Sets 01:50:09 0° 125° (SE) 3,759 5.6 -12.8°
